Terminal Aerodrome Forecast
Issued by NWS Burlington, VT

Current Version | Previous Version | Text Only | Print | Product List | Glossary On
Versions: 1 2 3 4 5 6 7 8 9 10 11 12 13 14 15 16 17 18 19 20 21 22
000 FTUS41 KBTV 131303 AAA TAFBTV TAF AMD KBTV 131303Z 1313/1412 29010KT P6SM VCSH OVC045 TEMPO 1313/1315 2SM -SN BR OVC025 FM131500 29012G19KT P6SM VCSH OVC050 FM132000 28013G24KT P6SM BKN040 FM140100 28011G19KT P6SM SCT140 FM140800 26008KT P6SM SCT150=

USA.gov is the U.S. government's official web portal to all federal, state and local government web resources and services.